Location: Brachbach
(49.1847°N, 9.7240°E)
Time: 16:34:54
(UTC+00:00)

Meteor 2-5 Rocket - Pass Details

Date: 13 August 2024
Orbit: 833 x 910 km, 81.2° (Epoch: 07 September)

Event Time Altitude Azimuth Distance (km) Brightness Sun altitude
Rises 02:04:10 0° 347° (NNW) 3,463 7.4 -17.3°
Reaches altitude 10° 02:06:36 10° 347° (NNW) 2,533 6.7 -17.1°
Maximum altitude 02:12:22 85° 260° (W) 897 3.7 -16.4°
Drops below altitude 10° 02:18:14 10° 173° (S) 2,565 5.8 -15.8°
Enters shadow 02:18:44 - 173° (S) 2,755 6.0 -15.7°
